Vorticity
3 10 12 6 4 3 2 3 3 4 7 4 7 7 5 4 6 7 6 8 7 4 10 13 10 3 7 9 8 15 10 9 11 11 11 8 6 8 9 5 6 4 6 10 -2 13 4
-3 3 10 11 3 4 3 4 4 3 3 6 3 8 4 5 4 6 5 7 9 5 4 16 14 6 9 9 8 16 4 6 8 9 10 11 13 9 7 7 7 4 7 7 9 -0 13
-1 -1 5 7 11 5 3 2 5 5 5 4 4 5 6 3 2 7 8 3 10 8 3 16 14 11 3 3 1 1 3 5 6 7 7 9 10 5 7 9 9 5 9 9 9 1 7
25 5 2 4 5 10 8 5 0 2 -0 3 4 5 4 2 4 3 8 6 10 9 5 11 22 12 5 6 3 6 9 10 9 11 10 8 12 11 11 12 10 8 12 6 15 9 -2
11 24 16 13 2 6 6 9 8 3 2 0 1 4 5 3 3 4 6 6 9 9 7 10 20 15 7 4 9 7 12 11 10 11 12 16 17 13 13 14 18 9 2 6 2 12 3
2 1 2 10 8 15 5 4 9 8 6 3 -0 3 3 3 3 5 5 7 7 8 1 13 12 12 7 6 9 11 6 11 13 14 15 16 17 13 9 6 6 14 11 -2 11 5 12
0 1 2 4 1 7 19 6 3 7 9 6 4 1 4 3 4 4 5 8 8 8 8 11 6 10 11 12 10 8 12 16 15 12 19 15 16 13 20 16 17 15 15 7 7 10 6
5 4 3 2 1 3 4 19 9 6 6 11 9 2 1 5 3 4 3 6 7 8 7 13 8 7 13 10 7 4 23 22 13 13 18 15 11 21 12 13 14 16 7 12 14 5 15
2 1 2 2 -2 2 5 6 15 8 7 7 10 8 -1 5 3 4 6 5 9 5 7 11 4 1 24 12 16 27 23 10 11 15 16 15 12 13 23 14 11 14 4 1 10 15 11
18 20 14 4 4 2 7 7 9 13 11 -9 14 13 1 5 8 3 5 6 5 2 7 8 5 21 9 17 26 20 16 5 20 11 18 17 27 12 0 1 19 5 9 5 -2 38 6
23 27 24 27 21 21 13 10 5 11 10 24 -3 13 10 3 1 5 4 7 4 3 2 6 12 10 22 24 20 14 21 18 8 20 18 16 18 16 15 19 3 15 5 19 -43 26 22
29 30 31 32 46 49 25 16 8 12 7 13 -10 14 4 6 3 4 6 6 4 4 12 6 14 12 23 1 19 15 18 28 11 19 16 22 19 27 39 43 20 3 -1 9 -20 15 -14
31 30 33 30 8 4 23 41 18 15 7 9 -2 12 1 5 6 4 6 4 5 11 5 14 11 18 5 25 7 24 23 4 23 25 29 22 20 21 37 21 42 24 15 -12 -20 -23 -17
33 28 28 31 41 3 -9 -8 22 13 10 11 -4 12 10 4 4 4 5 7 6 8 5 13 20 9 33 11 51 19 11 22 19 9 20 30 10 14 30 27 20 32 24 -12 29 9 40
25 28 29 53 -0 2 19 11 29 5 14 14 -3 11 9 5 3 7 3 7 12 2 12 14 5 12 44 26 11 16 29 9 14 16 14 15 46 10 15 16 18 6 -24 -50 38 46 25
22 31 36 59 3 -3 -6 18 22 6 15 14 -1 11 7 4 3 5 7 5 11 6 12 19 20 22 33 21 11 39 7 18 11 45 25 -8 7 25 30 12 27 -24 -50 -42 -3 -13 7
24 33 42 44 -38 19 13 25 20 30 5 21 0 10 6 2 4 4 10 12 6 18 18 -1 20 14 15 20 21 14 10 14 21 -26 -16 34 22 22 28 -6 -1 32 37 9 -12 59 37
34 28 32 38 42 6 1 21 13 -13 12 10 5 9 6 2 3 8 2 10 9 3 14 3 17 11 16 19 27 23 22 6 20 15 27 37 11 22 33 -10 -26 4 -16 48 -12 4 -3
19 49 7 4 -8 1 2 10 8 7 -4 24 11 8 5 3 6 10 7 10 5 3 8 24 18 7 15 12 8 4 16 10 24 -2 4 15 29 40 23 60 36 25 5 -19 22 2 13
58 34 21 10 -14 -13 -1 10 6 2 35 7 8 5 6 4 3 8 6 9 8 0 11 18 22 8 13 18 -5 12 18 12 6 1 -15 -17 -10 39 -27 33 6 21 -22 21 8 10 -3
47 -6 27 17 -1 -4 19 21 6 -2 10 11 9 2 1 4 4 7 10 13 11 2 7 11 26 9 6 12 0 17 -3 17 21 -0 2 8 22 -18 37 -3 -17 -22 -3 55 1 6 5
42 -14 43 6 -3 -0 0 7 11 27 14 10 7 4 2 1 4 8 7 7 16 8 9 17 11 23 4 4 8 12 14 9 3 1 5 10 8 19 -15 26 39 20 13 15 5 -1 2
48 8 29 9 1 1 9 -0 -1 28 7 7 3 3 4 5 6 5 8 15 9 -2 1 19 7 16 11 6 10 9 8 10 12 -11 -15 13 5 10 12 -0 10 9 5 0 0 5 20
52 24 -15 9 -5 0 13 -1 22 15 8 7 2 5 5 3 6 6 12 13 -0 6 1 31 11 14 13 9 10 15 14 17 8 4 4 3 2 1 5 7 6 9 8 12 6 7 3
34 11 22 9 -2 6 2 -18 23 18 7 3 9 4 4 5 8 8 11 11 6 0 8 38 4 5 16 3 8 16 -4 4 15 9 11 9 9 11 12 3 5 12 13 12 11 16 9
29 40 13 -3 -2 -2 -10 31 14 11 4 9 6 5 5 8 4 11 18 -6 -5 17 20 50 0 10 10 13 4 9 13 5 2 7 6 3 1 13 5 6 2 10 9 16 16 12 12
33 9 16 6 -6 16 -17 16 19 6 4 4 4 3 5 5 6 9 18 -4 9 12 31 47 12 -1 0 12 7 5 14 13 14 10 5 8 12 -2 -1 13 13 12 15 13 15 14 9
31 0 -11 33 -4 22 -1 1 31 6 4 1 5 5 5 6 9 7 18 -36 20 15 23 8 9 19 14 15 6 5 2 9 17 13 8 7 4 13 10 10 18 19 1 6 13 16 16
31 22 -22 33 -11 16 -14 -3 26 6 10 3 -1 3 5 5 9 4 9 -12 23 14 3 27 16 6 15 10 13 11 -1 -0 4 34 12 15 16 0 19 2 4 -3 23 4 13 11 8
Height
5714 5714 5715 5716 5717 5719 5719 5719 5719 5720 5719 5718 5718 5718 5717 5717 5717 5716 5715 5714 5713 5712 5712 5710 5709 5709 5709 5710 5714 5713 5716 5719 5721 5723 5724 5727 5729 5730 5735 5738 5740 5745 5751 5757 5764 5767 5770
5707 5706 5707 5708 5709 5709 5711 5711 5712 5712 5714 5712 5712 5711 5710 5709 5710 5709 5708 5706 5705 5704 5704 5703 5701 5701 5701 5703 5704 5704 5707 5707 5708 5711 5713 5715 5718 5720 5725 5728 5731 5737 5741 5747 5755 5759 5762
5697 5697 5698 5699 5699 5701 5702 5702 5703 5704 5705 5705 5704 5703 5703 5701 5702 5701 5700 5698 5697 5696 5695 5694 5692 5691 5692 5695 5693 5694 5694 5696 5696 5697 5700 5703 5705 5708 5712 5716 5721 5726 5729 5734 5745 5751 5753
5686 5687 5688 5689 5689 5690 5691 5693 5695 5695 5696 5696 5696 5696 5695 5694 5693 5693 5692 5689 5688 5686 5686 5684 5683 5680 5682 5682 5682 5682 5682 5682 5683 5685 5687 5689 5691 5695 5699 5704 5711 5717 5721 5726 5740 5742 5747
5676 5676 5676 5677 5679 5680 5680 5682 5684 5685 5686 5687 5687 5689 5687 5686 5685 5684 5683 5680 5678 5676 5675 5673 5672 5670 5670 5672 5671 5669 5671 5670 5669 5671 5673 5674 5676 5681 5686 5691 5698 5705 5712 5721 5728 5734 5739
5665 5665 5664 5664 5665 5667 5668 5670 5672 5674 5676 5677 5679 5679 5679 5678 5677 5676 5674 5671 5669 5666 5666 5664 5662 5661 5661 5660 5658 5658 5657 5657 5657 5656 5658 5659 5661 5667 5675 5680 5688 5698 5703 5711 5719 5729 5732
5651 5650 5650 5650 5651 5652 5654 5657 5659 5662 5664 5666 5669 5669 5670 5670 5669 5668 5666 5662 5661 5657 5655 5654 5652 5651 5649 5648 5648 5645 5643 5642 5642 5643 5644 5646 5648 5659 5670 5675 5684 5688 5695 5703 5712 5718 5723
5634 5632 5631 5632 5633 5636 5639 5641 5646 5649 5652 5655 5658 5659 5660 5661 5660 5660 5657 5654 5650 5646 5644 5644 5644 5640 5637 5636 5634 5631 5628 5628 5628 5631 5631 5630 5635 5656 5656 5660 5666 5677 5684 5694 5704 5711 5716
5614 5612 5611 5611 5614 5618 5622 5626 5630 5635 5639 5643 5646 5649 5650 5652 5652 5651 5649 5645 5640 5635 5632 5633 5634 5630 5625 5621 5619 5616 5613 5613 5615 5616 5617 5618 5640 5636 5638 5645 5653 5665 5676 5689 5699 5707 5710
5584 5586 5588 5590 5593 5599 5605 5611 5615 5622 5627 5631 5636 5638 5641 5643 5645 5642 5640 5636 5633 5626 5621 5624 5621 5617 5610 5606 5604 5601 5599 5600 5600 5605 5603 5602 5619 5618 5627 5634 5646 5655 5675 5683 5692 5695 5700
5555 5554 5558 5563 5570 5577 5585 5593 5600 5607 5614 5619 5625 5629 5631 5634 5635 5634 5633 5628 5624 5618 5612 5612 5607 5602 5598 5594 5591 5590 5589 5585 5588 5591 5589 5596 5602 5607 5611 5627 5639 5655 5666 5674 5679 5684 5694
5523 5523 5528 5536 5548 5556 5564 5574 5584 5593 5602 5608 5614 5619 5622 5624 5626 5626 5625 5620 5617 5613 5604 5602 5597 5591 5587 5584 5579 5576 5577 5576 5577 5578 5578 5583 5586 5591 5599 5611 5626 5652 5657 5670 5670 5682 5684
5497 5497 5503 5514 5528 5544 5549 5556 5569 5580 5590 5597 5604 5610 5613 5616 5618 5618 5617 5613 5610 5605 5600 5595 5588 5581 5576 5572 5570 5567 5566 5568 5568 5569 5570 5574 5579 5584 5589 5597 5613 5633 5649 5657 5662 5662 5668
5475 5477 5483 5495 5512 5527 5537 5547 5559 5569 5579 5588 5595 5601 5604 5607 5610 5610 5609 5606 5602 5597 5592 5587 5580 5573 5566 5562 5559 5560 5560 5561 5563 5565 5568 5570 5576 5580 5586 5596 5609 5624 5642 5652 5660 5665 5668
5460 5463 5471 5484 5499 5513 5524 5537 5547 5558 5568 5577 5585 5592 5597 5597 5602 5603 5603 5600 5595 5591 5587 5580 5573 5567 5560 5555 5555 5556 5557 5558 5561 5563 5565 5570 5575 5581 5588 5600 5612 5624 5628 5647 5658 5663 5671
5449 5453 5462 5475 5488 5502 5515 5525 5536 5548 5558 5567 5575 5583 5589 5589 5593 5595 5596 5592 5589 5586 5582 5576 5570 5565 5557 5553 5553 5553 5555 5559 5559 5560 5565 5574 5580 5583 5590 5599 5611 5624 5636 5644 5654 5659 5668
5441 5447 5455 5468 5484 5496 5506 5517 5530 5543 5550 5558 5567 5575 5582 5583 5586 5589 5589 5587 5584 5582 5578 5575 5569 5564 5558 5555 5553 5554 5558 5560 5560 5563 5567 5574 5581 5590 5595 5601 5610 5620 5629 5643 5648 5657 5664
5437 5443 5453 5469 5482 5489 5500 5511 5524 5529 5541 5550 5560 5567 5574 5576 5582 5583 5583 5582 5580 5579 5575 5573 5570 5565 5560 5557 5555 5555 5558 5560 5562 5566 5573 5582 5588 5595 5600 5610 5617 5625 5634 5639 5650 5656 5663
5432 5438 5449 5461 5469 5484 5495 5504 5516 5526 5535 5543 5554 5560 5565 5570 5575 5577 5576 5577 5577 5576 5574 5572 5570 5568 5565 5565 5562 5561 5563 5566 5567 5573 5581 5586 5592 5600 5604 5606 5613 5620 5632 5644 5648 5656 5662
5431 5438 5447 5458 5468 5481 5492 5501 5510 5521 5529 5538 5547 5553 5559 5564 5568 5570 5572 5573 5575 5573 5572 5571 5571 5570 5567 5569 5568 5568 5570 5572 5573 5577 5583 5590 5596 5599 5603 5611 5620 5626 5633 5643 5651 5658 5663
5432 5437 5444 5454 5466 5476 5488 5497 5506 5515 5523 5532 5540 5548 5555 5560 5563 5564 5566 5569 5571 5570 5570 5571 5571 5572 5571 5571 5571 5574 5575 5576 5578 5582 5584 5592 5593 5598 5607 5615 5621 5628 5635 5642 5649 5657 5663
5429 5436 5446 5453 5462 5474 5483 5494 5501 5506 5516 5527 5536 5543 5549 5554 5556 5559 5562 5566 5566 5567 5566 5570 5570 5571 5572 5573 5573 5575 5580 5582 5584 5588 5592 5595 5600 5604 5610 5617 5624 5631 5638 5646 5652 5655 5660
5424 5434 5441 5450 5461 5469 5480 5490 5497 5503 5513 5522 5532 5538 5544 5549 5551 5554 5557 5560 5562 5563 5564 5566 5568 5568 5571 5573 5576 5577 5580 5583 5587 5591 5595 5600 5604 5609 5615 5621 5627 5634 5638 5644 5648 5652 5659
5420 5430 5441 5450 5456 5467 5477 5486 5489 5498 5508 5518 5527 5533 5538 5544 5547 5550 5552 5555 5558 5558 5559 5562 5564 5567 5570 5572 5575 5577 5582 5585 5589 5592 5597 5603 5608 5613 5618 5622 5627 5631 5635 5641 5646 5648 5654
5418 5428 5437 5447 5453 5464 5475 5480 5485 5497 5504 5514 5522 5528 5534 5539 5542 5546 5548 5550 5553 5554 5554 5556 5561 5563 5567 5570 5573 5577 5582 5585 5590 5594 5598 5603 5607 5612 5616 5621 5625 5630 5634 5638 5643 5647 5650
5415 5424 5433 5441 5450 5459 5471 5478 5486 5495 5501 5510 5517 5524 5529 5535 5538 5542 5544 5547 5549 5549 5550 5552 5557 5562 5566 5569 5571 5575 5580 5585 5589 5594 5598 5601 5605 5611 5615 5617 5622 5626 5630 5635 5639 5643 5646
5408 5418 5427 5438 5447 5457 5466 5475 5482 5491 5497 5506 5513 5519 5525 5530 5535 5538 5541 5544 5546 5547 5547 5549 5555 5559 5563 5567 5572 5576 5580 5584 5589 5593 5598 5601 5605 5608 5611 5615 5619 5624 5626 5630 5635 5641 5639
5404 5412 5423 5434 5443 5453 5464 5471 5480 5487 5494 5502 5509 5515 5521 5527 5530 5534 5537 5541 5542 5545 5548 5551 5554 5557 5562 5566 5571 5575 5580 5584 5588 5592 5596 5601 5605 5609 5612 5615 5619 5621 5623 5627 5630 5632 5634
5398 5408 5418 5430 5439 5449 5459 5467 5476 5484 5491 5498 5506 5512 5517 5522 5527 5530 5534 5539 5541 5542 5546 5549 5553 5557 5562 5565 5571 5574 5579 5584 5587 5589 5594 5599 5604 5607 5611 5615 5616 5618 5620 5623 5625 5627 5630